User: anonymous   Login
Location: Dover
(39.1580°N, 75.5250°W)
Time: 03:44:55
(UTC-04:00)
Language:

SeaSat 1 - Orbit

View from above orbital plane
View from above orbital plane
View from above satellite
View from above satellite

Ground track
Ground track

The orbit data is extracted from the following two-line orbital elements,

1 10967U 78064A   16150.92394667 -.00000039 +00000-0 +29035-4 0  9993
2 10967 107.9993 218.7341 0002234 234.6390 125.4545 14.43550241991056
Epoch (UTC): 29 May 2016 22:10:28
Eccentricity: 0.0002234
inclination: 107.9993°
perigee height: 745 km
apogee height: 748 km
right ascension of ascending node: 218.7341°
argument of perigee: 234.6390°
revolutions per day: 14.43550241
mean anomaly at epoch: 125.4545°
orbit number at epoch: 99105

The dashed part of the orbit path shows where the satellite is in the earth's shadow,  

DLR